Погода Брохово

Погода Брохово : погода сейчас, прогноз погоды и архив. Всё, что Вы хотите узнать о погоде Брохово!

Поиск расширенной информации на нашем сайте:

Другие новости

Новости СМИ2

Главная страница сайта

Новости сайта

02.10.2013

Напоминаем, что на нашем новом сайте вы можете получить высокодетализированные прогнозы погоды по пунктам России, СНГ и мира (включающие важные для авиации метеовеличины, такие как направление и скорость ветра, видимость, явления погоды, количество и форма облачности, нижняя и верхняя граница облачности), а также ознакомиться с разнообразными материалами по авиационной метеорологии и подборкой полезных ссылок на эту тему.

Сайт Метеоцентр.Азия посвящён разработке технологий оптимизации авиаметеорологического обслуживания, включая проектирование и перспективное создание нескольких автоматизированных авиаметеорологических систем:
- система выпуска высокодетальных прогностических карт явлений погоды для нижнего воздушного пространства по России и ближнему зарубежью;
- система верификации прогнозов TAF (выпускаемых синоптиками официальных АМСГ РФ и ближнего зарубежья) и AUTOTAF (выпускаемых сайтом Метеоцентр.Азия) - выявление ошибок, онлайн-сопоставление с фактической погодой METAR, автоматическое внесение коррективов в прогнозы при резком отклонении фактической погоды от прогноза, подсчёт оправдываемости прогнозов по элементам и в целом;
- система обработки, анализа и отображения авиаметеорологической информации для применения провайдерами метеорологической информации.

Рекомендуем: http://donupak.ru/ горизонтальная упаковочная машина.

Погода Брохово - сегодня

Время (UTC), дата Ветер
(°,м/с) 
Видим.   Явления Облачность Т
(°С)
Тd
(°С)
f(%) Тe
(°С)
Pmin
(гПа)
dP
(гПа)
Po
(мм)
O2
(г/м3)
Тmin Tmax R s Состояние
почвы
15 24.04.17 260 (З) 20000 м    ясно 
-6.8 -8 91 -9  1018.6  -0.8  763  316           
18 24.04.17 210 (ЮЗ) 20000 м    ясно 
-8 -10.4 83 -10  1018.2  -0.4  763  318           
21 24.04.17 210 (ЮЗ) 20000 м    ясно 
-4.7 -6.5 87 -6  1017.5  -0.7  763  313  -9      98  мокрый или
старый снег
50-90% 
00 25.04.17 190 (Ю) 20000 м    ясно 
+1.3 -2.8 74 +1  1016.6  -0.9  762  306           
03 25.04.17 190 (Ю) 20000 м    ясно 
+2.8 -1.1 75 +1  1015.1  -1.6  761  304           
06 25.04.17 180 (Ю) 20000 м    ясно 
+2.9 -1.7 72 1013.8  -1.3  760  303           
09 25.04.17 190 (Ю) 20000 м    ясно 
+0.1 -2.6 82 -3  1013  -0.8  759  306    +4.5       
12 25.04.17 210 (ЮЗ) 20000 м    3/0 верхняя 
[Ci fib]
-0.5 -3.9 78 -4  1013.3  0.3  759  307           
15 25.04.17 300 (СЗ) 20000 м    3/0 верхняя 
[Ci fib]
-5.7 -6.8 92 -5  1012.1  -1.2  759  313           
18 25.04.17 350 (С) 20000 м    1/0 верхняя 
[Ci fib]
-8.6 -9.5 93 -8  1011.5  -0.6  758  316           
21 25.04.17 тихо ()   20000 м    ясно 
-2.3 -4.8 83 -2  1011.4  -0.1  758  309  -8.6      94  мокрый или
старый снег
50-90% 
00 26.04.17 070 (В) 20000 м    1/0 верхняя 
[Ci fib]
+2.2 -3 68 +3  1010.8  -0.6  758  303           
03 26.04.17 110 (В) 20000 м    ясно 
+3.2 -2.8 65 +3  1010.3  -0.5  757  302           
06 26.04.17 090 (В) 20000 м    ясно 
+1.1 -2.1 79 1009.8  -0.5  757  304           
09 26.04.17 060 (СВ) н/о    н/о 
-2.3 -3.4 92 -5  1009.6  -0.2  757  308    +3.5       
12 26.04.17 110 (В) 20000 м    ясно 
-4.5 -5 96 -6  1009.7  0.1  757  311           
15 26.04.17 190 (Ю) 20000 м    ясно 
-8.1 -8.9 94 -8  1008.8  -0.9  756  315           
18 26.04.17 180 (Ю) н/о    н/о 
-9.4 -10.3 93 -11  1008.1  -0.7  756  316           
21 26.04.17 190 (Ю) 20000 м    8/0 средняя, верхняя 
[Ac trans|Ci fib]
-6.2 -6.3 99 -10  1007.5  -0.7  755  312  -9.5      92  мокрый или
старый снег
50-90% 
00 27.04.17 110 (В) 20000 м    3/0 верхняя 
[Ci fib]
-0.1 -2.6 83 -1  1006.8  -0.6  755  304           
03 27.04.17 050 (СВ) 0500 м  туман  ?/?  
-1.7 -2.8 92 -4  1006.3  -0.5  754  306           
06 27.04.17 070 (В) 0500 м  туман  ?/?  
-2.1 -2.8 95 -6  1006.3  754  307           
09 27.04.17 070 (В) 7{10}  20000 м  {туман}  10/10 200 м 
[St]
-2.6 -3.2 96 -7  1006.2  754  307    +0.3       
12 27.04.17 050 (СВ) 10 км  слаб. ливневой снег{туман}  10/10 200 м кучево-дожд. 
[Cb cap]
-2.3 -2.9 96 -6  1006  -0.2  754  307           
15 27.04.17 020 (С) 20000 м  {ливн. осадки}  10/10 200 м кучево-дожд. 
[Cb cap]
-2.2 -3.3 92 -6  1004.6  -1.4  753  306           
Время (UTC), дата Ветер
(°,м/с) 
Видим.   Явления Облачность Т
(°С)
Тd
(°С)
f(%) Тe
(°С)
Pmin
(гПа)
dP
(гПа)
Po
(мм)
O2
(г/м3)
Тmin Tmax R s Состояние
почвы

Для получения пояснительной информации подведите курсор к названию столбца.

ПОГОДА Брохово - архив

Всё, что Вы хотите узнать о погоде Брохово - удобно и подробно!

Выберите нужную дату (начиная с 1 января 2015* года) и нажмите кнопку "Найти".
Будут отображены архивные сводки погоды по пункту Брохово, начиная с указанной даты.


Отображать данные в формате CSV (для использования в таблицах Excel)


Внимание! Наш архив погоды предназначен исключительно для личного некоммерческого использования в познавательных целях. Если Вам необходимы официальные справки о состоянии погоды (для производственных, юридических, коммерческих и т.п. целей), обращайтесь в органы Росгидромета.

*Примечание: данная дата относится к архиву по метеостанциям СССР (Россия, СНГ, Балтия).
Архив по метеостанциям Зарубежной Европы и Азии (кроме Китая) хранится 10 дней, по другим регионам земного шара (Китай, Африка, Америка, Австралия, Океания) - 1 день.

Брохово - район местоположения метеостанции


Название, широта, долгота, высота метеостанции:
Брохово 59.7°ш. 154.3°д. 5 м над ур. моря [Российская Федерация]

Дополнительная информация

В oтличие oт бoльшинства пoгoдных сайтoв мы публикуем пoдрoбную метеoинфoрмацию в детальнoм прoфессиoнальнoм фoрмате.

Характеристики температуры и влажнoсти вoздуха измеряются на высoте 2 м в тени вдали oт зданий и деревьев.
Скoрoсть ветра измеряется на высoте 10 м (на урoвне рoста челoвека скoрoсть ветра ниже в 1.5-2 раза). Если метеoстанция нахoдится в гoрoде или в лесу, тo скoрoсть ветра занижена на 2-4 м/с пo сравнению с oткрытым местoм. Скoрoсть ветра над акватoриями крупных рек и oзёр, а также на вершинах хoлмoв на 2-5 м/с выше, чем в oбычных услoвиях.
Атмoсфернoе давление в разных тoчках местнoсти мoжет значительнo oтличаться oт давления на метеoстанции, в зависимoсти oт услoвий рельефа (при пoдъёме на 10 м давление пoнижается примернo на 1 мм рт.ст.).